Temp
14 14 14 14 15 15 15 15 16 16 15 15 16 16 16 16 16 15 14 14 14 14
14 14 15 15 15 15 14 15 15 15 15 15 15 15 15 15 15 14 14 14 14 14
14 15 15 15 15 14 14 14 14 14 14 14 14 14 14 13 14 13 14 14 13 13
14 14 14 14 14 14 14 13 13 13 13 13 14 14 14 13 13 13 14 14 14 13
13 13 13 13 13 13 13 13 13 13 13 13 13 13 13 13 13 13 13 13 13 13
12 12 12 12 12 12 12 12 11 11 11 11 12 12 12 12 12 12 12 12 12 11
10 10 10 11 11 11 11 11 11 11 11 11 11 11 11 11 11 11 11 11 11 11
10 10 10 10 10 10 10 10 10 10 10 10 10 10 10 9 9 9 9 9 9 9
9 9 9 9 9 9 9 9 9 9 9 9 9 9 9 9 9 9 9 9 9 9
8 8 8 8 8 8 7 7 8 8 8 8 8 8 8 8 8 8 8 8 8 8
6 6 6 6 6 6 6 6 6 7 6 7 7 7 7 7 7 7 7 7 7 8
5 5 5 5 5 5 5 5 6 6 7 7 6 7 7 6 6 6 7 7 7 7
4 4 3 3 4 5 5 5 5 5 5 6 5 6 6 6 5 5 6 6 6 6
3 2 1 2 2 2 3 3 5 5 5 5 5 5 5 5 4 4 4 4 5 5
Height
752 755 760 765 770 772 775 778 781 782 784 787 789 789 789 790 790 791 791 791 794 795
753 757 762 764 765 768 773 775 778 779 780 782 784 784 785 784 785 787 786 784 787 789
757 757 758 763 766 768 768 771 774 777 779 779 780 779 779 779 780 781 779 780 783 785
756 758 761 763 764 767 768 769 770 773 774 773 773 774 775 774 774 774 774 776 777 778
759 762 760 763 766 768 768 769 770 771 770 769 770 769 770 768 769 768 769 769 770 769
763 762 765 769 769 769 770 770 770 769 769 768 766 766 764 764 764 764 763 764 764 762
768 769 769 770 769 770 769 769 768 767 767 766 765 764 762 763 761 760 757 758 760 759
771 774 774 774 773 771 771 768 765 766 767 764 760 761 760 760 759 758 756 755 755 755
773 774 772 771 769 769 765 764 762 761 761 761 759 758 757 757 756 754 752 750 749 751
774 773 770 770 769 766 764 763 762 762 757 754 757 756 755 755 753 753 750 748 748 747
777 776 777 776 771 767 764 762 761 757 754 750 752 755 754 752 749 747 746 745 746 745
776 774 772 770 769 767 764 763 759 755 751 750 749 750 750 747 745 742 742 740 739 741
778 774 771 768 771 768 762 761 758 752 750 748 745 745 746 740 739 736 733 735 734 736
775 772 772 770 770 765 760 758 754 752 752 749 745 741 739 735 735 732 730 729 726 727
Wind_Speed
7 8 7 11 14 16 17 19 20 16 15 16 19 18 19 20 19 23 24 22 21 24
7 6 7 8 6 11 14 18 19 23 25 22 23 23 22 23 28 28 27 22 22 21
4 5 4 10 16 18 18 19 22 24 25 25 24 24 26 28 31 29 24 25 25 25
11 9 7 3 2 4 6 7 13 19 25 27 27 27 28 29 29 30 28 32 31 30
14 11 11 8 5 3 4 5 6 9 11 13 16 17 21 24 27 28 30 35 36 34
15 13 10 7 6 6 6 6 7 8 11 12 15 18 20 22 26 30 30 29 31 31
18 14 11 9 8 7 7 7 8 9 10 11 13 15 17 20 22 25 25 27 27 25
16 14 13 13 11 9 9 8 8 11 13 13 13 15 16 18 20 21 21 22 23 24
17 16 17 17 16 14 14 14 14 14 14 16 16 16 16 17 19 21 21 23 23 24
17 17 19 20 19 20 20 19 16 15 15 17 20 19 19 19 20 22 22 22 23 23
15 15 14 14 16 17 18 20 20 21 19 19 20 21 21 21 21 23 24 24 25 26
14 14 15 18 18 18 20 23 22 23 23 23 23 22 22 22 23 24 26 25 25 26
13 16 16 18 19 17 17 20 21 24 24 24 24 24 25 23 25 26 27 29 27 27
20 19 16 17 17 18 19 20 19 20 21 23 24 25 26 24 24 23 22 24 24 27
Wind_Direction
110 108 148 163 175 185 201 222 227 236 230 246 241 237 239 242 252 250 240 237 242 239
160 212 239 263 252 256 240 238 232 240 250 247 243 247 249 255 258 257 246 246 229 232
150 199 225 256 268 277 273 256 250 250 248 251 259 254 257 262 258 253 249 239 238 237
74 71 81 69 3 317 306 290 268 261 262 262 266 266 269 261 256 249 254 240 242 246
72 71 65 54 41 2 315 291 271 269 269 263 262 261 257 253 251 249 247 245 245 242
59 56 53 38 25 6 350 333 313 303 286 278 273 270 265 263 261 255 248 245 246 246
50 45 39 28 17 360 348 335 321 310 300 287 273 270 272 271 268 263 259 255 251 248
40 33 28 21 13 3 347 338 326 315 307 301 294 287 280 276 274 270 267 259 251 244
21 16 14 10 6 356 352 347 339 328 315 308 302 297 289 280 275 272 265 258 253 248
14 9 7 0 358 357 354 343 333 325 323 317 307 302 296 291 281 274 270 264 256 246
20 16 6 359 358 353 351 345 339 335 332 327 314 306 299 293 283 277 271 267 264 257
17 13 6 358 354 350 349 344 341 335 327 320 312 310 306 301 290 276 272 271 267 260
2 2 357 351 337 328 328 326 327 330 330 323 317 310 307 308 296 279 274 274 269 263
358 3 351 344 343 342 339 326 318 314 312 316 316 317 319 319 303 275 268 267 266 269